This is the latest recevied weather packets stored in our database for station/object WA1OUI. If no packets are shown the sender has not sent any weather packets the latest 10 day(s).
| Time | Temp. | Humidity | Pressure | Rain* | Wind** | Luminosity | Snow |
|---|---|---|---|---|---|---|---|
| 1777728477 | 10.56° C | 91% | 1009.9 hPa | 0 mm | - | 140 W/m² | - |
| 1777728174 | 10° C | 90% | 1010 hPa | 0 mm | - | 174 W/m² | - |
| 1777727871 | 10° C | 91% | 1010.1 hPa | 0 mm | - | 102 W/m² | - |
| 1777727568 | 10° C | 91% | 1009.9 hPa | 0 mm | - | 125 W/m² | - |
| 1777727265 | 10° C | 91% | 1009.8 hPa | 0 mm | - | 123 W/m² | - |
| 1777726963 | 9.44° C | 92% | 1010.1 hPa | 0 mm | - | 103 W/m² | - |
| 1777726659 | 9.44° C | 93% | 1010 hPa | 0 mm | - | 87 W/m² | - |
| 1777726357 | 9.44° C | 95% | 1010 hPa | 0 mm | - | 87 W/m² | - |
| 1777726053 | 9.44° C | 96% | 1010.1 hPa | 0 mm | - | 102 W/m² | - |
| 1777725750 | 9.44° C | 96% | 1010.2 hPa | 0 mm | - | 113 W/m² | - |
| 1777725449 | 9.44° C | 97% | 1010.3 hPa | 0 mm | - | 74 W/m² | - |
| 1777725145 | 8.89° C | 97% | 1010.4 hPa | 0 mm | - | 73 W/m² | - |
| 1777724842 | 8.89° C | 97% | 1010.1 hPa | 0 mm | - | 102 W/m² | - |
| 1777724538 | 8.89° C | 97% | 1010 hPa | 0 mm | - | 111 W/m² | - |
| 1777724237 | 8.89° C | 97% | 1010.2 hPa | 0 mm | - | 73 W/m² | - |
| 1777723934 | 8.89° C | 97% | 1010.3 hPa | 0 mm | - | 58 W/m² | - |
| 1777723630 | 8.89° C | 97% | 1010.3 hPa | 0 mm | - | 42 W/m² | - |
| 1777723327 | 8.89° C | 97% | 1010.4 hPa | 0 mm | - | 36 W/m² | - |
| 1777723025 | 8.89° C | 97% | 1010.4 hPa | 0 mm | - | 33 W/m² | - |
| 1777722721 | 8.89° C | 97% | 1010.2 hPa | 0 mm | - | 32 W/m² | - |
| 1777722417 | 8.89° C | 97% | 1010.3 hPa | 0 mm | - | 24 W/m² | - |
| 1777722115 | 8.89° C | 97% | 1010.1 hPa | 0 mm | - | 51 W/m² | - |
| 1777721812 | 8.33° C | 97% | 1010.3 hPa | 0 mm | - | 55 W/m² | - |
| 1777721510 | 8.33° C | 97% | 1010.4 hPa | 0 mm | - | 48 W/m² | - |
| 1777721208 | 8.33° C | 97% | 1010.2 hPa | 0 mm | - | 47 W/m² | - |
* Rain latest hour (hover to see other rain measurements)
** Current wind speed in m/s (hover to see current wind gust speed)